| time (UTC) | temp F | wind direction | speed knots | gust knots | rain 1hr in | rain 24hr in | rain mn in | humidity % | barometer mb |
| 20260508022355 | 71 | 214 | 2.6 | 7.8 | 0.00 | 0.00 | 0.00 | 62 | 1004.4 |
| 20260508021854 | 71 | 226 | 5.2 | 7.8 | 0.00 | 0.00 | 0.00 | 62 | 1004.7 |
| 20260508021354 | 71 | 227 | 3.5 | 7.8 | 0.00 | 0.00 | 0.00 | 62 | 1004.6 |
| 20260508020857 | 71 | 200 | 4.3 | 7.8 | 0.00 | 0.00 | 0.00 | 62 | 1004.8 |
| 20260508020356 | 71 | 190 | 3.5 | 7.8 | 0.00 | 0.00 | 0.00 | 62 | 1005.1 |
| 20260508015856 | 71 | 216 | 2.6 | 7.8 | 0.00 | 0.00 | 0.00 | 62 | 1005.2 |
| 20260508015356 | 71 | 244 | 3.5 | 7.8 | 0.00 | 0.00 | 0.00 | 61 | 1005.3 |
| 20260508014855 | 71 | 207 | 5.2 | 7.8 | 0.00 | 0.00 | 0.00 | 62 | 1005.3 |
| 20260508014354 | 71 | 188 | 1.7 | 10.4 | 0.00 | 0.00 | 0.00 | 62 | 1005.5 |
| 20260508013856 | 71 | 233 | 4.3 | 10.4 | 0.00 | 0.00 | 0.00 | 62 | 1005.4 |
| 20260508013356 | 71 | 208 | 4.3 | 6.1 | 0.00 | 0.00 | 0.00 | 62 | 1005.5 |
| 20260508012856 | 71 | 224 | 2.6 | 14.8 | 0.00 | 0.00 | 0.00 | 62 | 1005.5 |
| 20260508012356 | 72 | 247 | 3.5 | 14.8 | 0.00 | 0.00 | 0.00 | 62 | 1005.5 |
| 20260508011856 | 71 | 193 | 3.5 | 10.4 | 0.00 | 0.00 | 0.00 | 62 | 1005.3 |
| 20260508011355 | 71 | 222 | 7.8 | 10.4 | 0.00 | 0.00 | 0.00 | 62 | 1005.4 |
| 20260508010855 | 71 | 256 | 4.3 | 7.0 | 0.00 | 0.00 | 0.00 | 63 | 1005.4 |
| 20260508010355 | 71 | 192 | 2.6 | 5.2 | 0.00 | 0.00 | 0.00 | 63 | 1005.7 |
| 20260508005855 | 71 | 205 | 2.6 | 7.8 | 0.00 | 0.00 | 0.00 | 63 | 1005.5 |
| 20260508005355 | 71 | 214 | 5.2 | 7.8 | 0.00 | 0.00 | 0.00 | 63 | 1005.5 |
| 20260508004855 | 71 | 198 | 2.6 | 4.3 | 0.00 | 0.00 | 0.00 | 63 | 1005.7 |
| 20260508004354 | 71 | 230 | 0.9 | 3.5 | 0.00 | 0.00 | 0.00 | 63 | 1005.4 |
| 20260508003856 | 71 | 260 | 2.6 | 3.5 | 0.00 | 0.00 | 0.00 | 63 | 1005.4 |
| 20260508003356 | 71 | 261 | 0.9 | 3.5 | 0.00 | 0.00 | 0.00 | 63 | 1005.5 |
| 20260508002856 | 71 | 251 | 1.7 | 3.5 | 0.00 | 0.00 | 0.00 | 63 | 1005.7 |
| 20260508002356 | 71 | 265 | 1.7 | 3.5 | 0.00 | 0.00 | 0.00 | 63 | 1005.5 |
| 20260508001856 | 71 | 248 | 2.6 | 3.5 | 0.00 | 0.00 | 0.00 | 63 | 1005.7 |
| 20260508001356 | 71 | 190 | 0.9 | 3.5 | 0.00 | 0.00 | 0.00 | 64 | 1005.7 |
| 20260508000855 | 71 | 149 | 0.0 | 3.5 | 0.00 | 0.00 | 0.00 | 64 | 1005.6 |
| 20260508000357 | 71 | 203 | 0.9 | 3.5 | 0.00 | 0.00 | 0.00 | 63 | 1005.5 |
| 20260507235855 | 71 | 209 | 0.0 | 3.5 | 0.00 | 0.00 | 0.00 | 63 | 1005.5 |
| 20260507235355 | 71 | 217 | 2.6 | 7.8 | 0.00 | 0.00 | 0.00 | 63 | 1005.3 |
| 20260507234855 | 71 | 252 | 1.7 | 7.8 | 0.00 | 0.00 | 0.00 | 63 | 1005.5 |
| 20260507234356 | 71 | 247 | 5.2 | 7.8 | 0.00 | 0.00 | 0.00 | 63 | 1005.6 |
| 20260507233856 | 71 | 224 | 2.6 | 3.5 | 0.00 | 0.00 | 0.00 | 62 | 1005.6 |
| 20260507233356 | 71 | 241 | 1.7 | 3.5 | 0.00 | 0.00 | 0.00 | 62 | 1005.5 |
| 20260507232856 | 71 | 259 | 2.6 | 2.6 | 0.00 | 0.00 | 0.00 | 62 | 1005.5 |
| 20260507232356 | 72 | 194 | 0.9 | 3.5 | 0.00 | 0.00 | 0.00 | 62 | 1005.5 |
| 20260507231856 | 72 | 176 | 0.9 | 3.5 | 0.00 | 0.00 | 0.00 | 62 | 1005.4 |
| 20260507231355 | 72 | 209 | 0.0 | 3.5 | 0.00 | 0.00 | 0.00 | 62 | 1005.3 |
| 20260507230856 | 72 | 228 | 0.0 | 3.5 | 0.00 | 0.00 | 0.00 | 61 | 1005.5 |
| 20260507230356 | 72 | 225 | 0.9 | 6.1 | 0.00 | 0.00 | 0.00 | 61 | 1005.3 |
| 20260507225855 | 72 | 243 | 0.9 | 6.1 | 0.00 | 0.00 | 0.00 | 61 | 1005.5 |
| 20260507225355 | 72 | 277 | 1.7 | 5.2 | 0.00 | 0.00 | 0.00 | 61 | 1005.5 |
| 20260507224855 | 72 | 249 | 2.6 | 5.2 | 0.00 | 0.00 | 0.00 | 61 | 1005.4 |
| 20260507224355 | 72 | 276 | 1.7 | 3.5 | 0.00 | 0.00 | 0.00 | 61 | 1005.4 |
| 20260507223856 | 72 | 338 | 1.7 | 3.5 | 0.00 | 0.00 | 0.00 | 61 | 1005.4 |
| 20260507223357 | 72 | 244 | 0.9 | 3.5 | 0.00 | 0.00 | 0.00 | 60 | 1005.6 |
| 20260507222855 | 72 | 249 | 1.7 | 5.2 | 0.00 | 0.00 | 0.00 | 57 | 1005.6 |
| 20260507222355 | 72 | 278 | 0.9 | 5.2 | 0.00 | 0.00 | 0.00 | 56 | 1005.6 |
| 20260507221855 | 73 | 234 | 0.9 | 4.3 | 0.00 | 0.00 | 0.00 | 56 | 1005.6 |
| 20260507221355 | 73 | 225 | 0.9 | 6.1 | 0.00 | 0.00 | 0.00 | 55 | 1005.8 |
| 20260507220856 | 73 | 246 | 1.7 | 6.1 | 0.00 | 0.00 | 0.00 | 55 | 1005.7 |
| 20260507220356 | 73 | 216 | 2.6 | 6.1 | 0.00 | 0.00 | 0.00 | 54 | 1005.7 |
| 20260507215856 | 74 | 209 | 0.0 | 5.2 | 0.00 | 0.00 | 0.00 | 54 | 1005.6 |
| 20260507215356 | 74 | 254 | 0.9 | 6.1 | 0.00 | 0.00 | 0.00 | 54 | 1005.7 |
| 20260507214856 | 74 | 228 | 2.6 | 6.1 | 0.00 | 0.00 | 0.00 | 54 | 1005.6 |
| 20260507214356 | 74 | 201 | 0.9 | 4.3 | 0.00 | 0.00 | 0.00 | 54 | 1005.7 |
| 20260507213855 | 74 | 239 | 1.7 | 4.3 | 0.00 | 0.00 | 0.00 | 54 | 1005.7 |
| 20260507213355 | 74 | 240 | 1.7 | 4.3 | 0.00 | 0.00 | 0.00 | 55 | 1005.8 |
| 20260507212855 | 74 | 219 | 0.9 | 2.6 | 0.00 | 0.00 | 0.00 | 55 | 1005.8 |
| 20260507212355 | 74 | 247 | 0.9 | 3.5 | 0.00 | 0.00 | 0.00 | 55 | 1005.9 |
| 20260507211855 | 74 | 252 | 1.7 | 3.5 | 0.00 | 0.00 | 0.00 | 55 | 1005.9 |
| 20260507211355 | 74 | 231 | 0.9 | 3.5 | 0.00 | 0.00 | 0.00 | 55 | 1006.0 |
| 20260507210857 | 74 | 233 | 1.7 | 4.3 | 0.00 | 0.00 | 0.00 | 55 | 1006.0 |
| 20260507210356 | 74 | 248 | 2.6 | 4.3 | 0.00 | 0.00 | 0.00 | 55 | 1006.1 |
| 20260507205856 | 75 | 240 | 2.6 | 5.2 | 0.00 | 0.00 | 0.00 | 55 | 1006.2 |
| 20260507205356 | 75 | 211 | 2.6 | 5.2 | 0.00 | 0.00 | 0.00 | 55 | 1006.2 |
| 20260507204856 | 75 | 223 | 1.7 | 5.2 | 0.00 | 0.00 | 0.00 | 55 | 1006.0 |
| 20260507204355 | 75 | 227 | 1.7 | 2.6 | 0.00 | 0.00 | 0.00 | 55 | 1006.0 |
| 20260507203857 | 75 | 245 | 0.9 | 4.3 | 0.00 | 0.00 | 0.00 | 55 | 1005.9 |
| 20260507203356 | 75 | 250 | 1.7 | 5.2 | 0.00 | 0.00 | 0.00 | 54 | 1006.0 |
| 20260507202856 | 76 | 251 | 3.5 | 5.2 | 0.00 | 0.00 | 0.00 | 54 | 1006.0 |
| 20260507202357 | 76 | 244 | 2.6 | 5.2 | 0.00 | 0.00 | 0.00 | 54 | 1006.0 |
| 20260507201857 | 76 | 171 | 2.6 | 5.2 | 0.00 | 0.00 | 0.00 | 54 | 1005.8 |
| 20260507201356 | 76 | 210 | 0.9 | 7.8 | 0.00 | 0.00 | 0.00 | 53 | 1005.9 |
| 20260507200856 | 77 | 260 | 2.6 | 7.8 | 0.00 | 0.00 | 0.00 | 52 | 1006.0 |
| 20260507200355 | 77 | 221 | 4.3 | 7.8 | 0.00 | 0.00 | 0.00 | 52 | 1006.0 |
| 20260507195857 | 78 | 195 | 5.2 | 7.8 | 0.00 | 0.00 | 0.00 | 50 | 1006.0 |
| 20260507195356 | 79 | 232 | 2.6 | 8.7 | 0.00 | 0.00 | 0.00 | 50 | 1005.7 |
| 20260507194856 | 80 | 243 | 2.6 | 8.7 | 0.00 | 0.00 | 0.00 | 50 | 1005.9 |
| 20260507194356 | 79 | 199 | 4.3 | 7.8 | 0.00 | 0.00 | 0.00 | 50 | 1006.0 |
| 20260507193856 | 79 | 216 | 4.3 | 10.4 | 0.00 | 0.00 | 0.00 | 50 | 1006.0 |
| 20260507193355 | 78 | 195 | 5.2 | 10.4 | 0.00 | 0.00 | 0.00 | 51 | 1006.2 |
| 20260507192855 | 77 | 214 | 3.5 | 7.8 | 0.00 | 0.00 | 0.00 | 51 | 1006.0 |
| 20260507192355 | 77 | 236 | 2.6 | 7.8 | 0.00 | 0.00 | 0.00 | 51 | 1006.1 |
| 20260507191855 | 77 | 243 | 4.3 | 8.7 | 0.00 | 0.00 | 0.00 | 51 | 1005.8 |
| 20260507191356 | 77 | 256 | 2.6 | 13.9 | 0.00 | 0.00 | 0.00 | 51 | 1005.9 |
| 20260507190856 | 77 | 236 | 5.2 | 13.9 | 0.00 | 0.00 | 0.00 | 50 | 1006.0 |
| 20260507190356 | 77 | 173 | 4.3 | 9.6 | 0.00 | 0.00 | 0.00 | 50 | 1005.9 |
| 20260507185855 | 77 | 221 | 2.6 | 9.6 | 0.00 | 0.00 | 0.00 | 50 | 1005.7 |
| 20260507185356 | 77 | 289 | 3.5 | 10.4 | 0.00 | 0.00 | 0.00 | 49 | 1005.6 |
| 20260507184855 | 77 | 305 | 7.0 | 10.4 | 0.00 | 0.00 | 0.00 | 49 | 1005.7 |
| 20260507184355 | 77 | 245 | 5.2 | 9.6 | 0.00 | 0.00 | 0.00 | 49 | 1005.5 |
| 20260507183855 | 77 | 210 | 4.3 | 12.2 | 0.00 | 0.00 | 0.00 | 49 | 1005.5 |
| 20260507183357 | 77 | 208 | 5.2 | 12.2 | 0.00 | 0.00 | 0.00 | 48 | 1005.4 |
| 20260507182857 | 78 | 224 | 2.6 | 7.8 | 0.00 | 0.00 | 0.00 | 48 | 1005.4 |
| 20260507182356 | 78 | 232 | 4.3 | 11.3 | 0.00 | 0.00 | 0.00 | 47 | 1005.5 |
| 20260507181856 | 78 | 256 | 3.5 | 13.0 | 0.00 | 0.00 | 0.00 | 45 | 1005.4 |
| 20260507181356 | 79 | 252 | 7.8 | 13.0 | 0.00 | 0.00 | 0.00 | 44 | 1005.6 |
| 20260507180856 | 80 | 239 | 8.7 | 16.5 | 0.00 | 0.00 | 0.00 | 44 | 1005.6 |
| 20260507180356 | 80 | 236 | 7.0 | 16.5 | 0.00 | 0.00 | 0.00 | 43 | 1005.8 |
| 20260507175856 | 80 | 237 | 8.7 | 16.5 | 0.00 | 0.00 | 0.00 | 43 | 1005.7 |
| 20260507175355 | 79 | 241 | 7.8 | 10.4 | 0.00 | 0.00 | 0.00 | 44 | 1005.8 |
| 20260507174855 | 80 | 225 | 7.0 | 10.4 | 0.00 | 0.00 | 0.00 | 44 | 1005.5 |
| 20260507174355 | 79 | 248 | 5.2 | 12.2 | 0.00 | 0.00 | 0.00 | 45 | 1005.6 |
| 20260507173857 | 79 | 338 | 4.3 | 12.2 | 0.00 | 0.00 | 0.00 | 45 | 1005.7 |
| 20260507173357 | 78 | 282 | 5.2 | 9.6 | 1.84 | 0.00 | 0.00 | 47 | 1005.6 |
| 20260507172857 | 78 | 281 | 4.3 | 9.6 | 1.84 | 0.00 | 0.00 | 48 | 1005.8 |
| 20260507172355 | 78 | 278 | 5.2 | 7.8 | 0.00 | 0.00 | 0.00 | 48 | 1005.8 |
| 20260507171856 | 78 | 287 | 6.1 | 9.6 | 0.00 | 0.00 | 0.00 | 47 | 1005.7 |
| 20260507171356 | 78 | 274 | 3.5 | 13.0 | 0.00 | 0.00 | 0.00 | 47 | 1005.8 |
| 20260507170856 | 79 | 266 | 2.6 | 13.0 | 0.00 | 0.00 | 0.00 | 45 | 1005.9 |
| 20260507170356 | 79 | 260 | 10.4 | 13.0 | 0.00 | 0.00 | 0.00 | 44 | 1006.1 |
| 20260507165856 | 79 | 253 | 3.5 | 7.8 | 0.00 | 0.00 | 0.00 | 46 | 1005.9 |
| 20260507165356 | 78 | 270 | 5.2 | 12.2 | 0.00 | 0.00 | 0.00 | 47 | 1006.2 |
| 20260507164855 | 78 | 271 | 5.2 | 12.2 | 0.00 | 0.00 | 0.00 | 47 | 1006.3 |
| 20260507164355 | 78 | 265 | 7.8 | 13.0 | 0.00 | 0.00 | 0.00 | 47 | 1006.4 |
| 20260507163857 | 78 | 70 | 3.5 | 41.7 | 0.00 | 0.00 | 0.00 | 47 | 1006.5 |
| 20260507163357 | 78 | 69 | 2.6 | 41.7 | 0.00 | 0.00 | 0.00 | 48 | 1006.7 |
| 20260507162857 | 79 | 83 | 3.5 | 41.7 | 0.00 | 0.00 | 0.00 | 48 | 1006.5 |
| 20260507162356 | 79 | 181 | 7.0 | 10.4 | 0.00 | 0.00 | 0.00 | 47 | 1006.3 |
| 20260507161856 | 79 | 269 | 5.2 | 10.4 | 0.00 | 0.00 | 0.00 | 45 | 1006.8 |
| 20260507161356 | 79 | 269 | 5.2 | 10.4 | 0.00 | 0.00 | 0.00 | 45 | 1006.8 |
| 20260507160856 | 79 | 261 | 5.2 | 10.4 | 0.00 | 0.00 | 0.00 | 45 | 1006.8 |
| 20260507160356 | 79 | 232 | 5.2 | 14.8 | 0.00 | 0.00 | 0.00 | 45 | 1006.7 |
| 20260507155856 | 79 | 220 | 7.8 | 14.8 | 0.00 | 0.00 | 0.00 | 45 | 1006.7 |
| 20260507155357 | 79 | 235 | 8.7 | 14.8 | 0.00 | 0.00 | 0.00 | 46 | 1006.5 |
| 20260507154856 | 79 | 272 | 6.1 | 11.3 | 0.00 | 0.00 | 0.00 | 50 | 1007.1 |
| 20260507154356 | 79 | 291 | 5.2 | 11.3 | 0.00 | 0.00 | 0.00 | 50 | 1006.9 |
| 20260507153856 | 78 | 259 | 7.8 | 11.3 | 0.00 | 0.00 | 0.00 | 52 | 1007.2 |
| 20260507153356 | 78 | 267 | 3.5 | 12.2 | 0.00 | 0.00 | 0.00 | 53 | 1007.1 |
| 20260507152856 | 79 | 272 | 5.2 | 12.2 | 0.00 | 0.00 | 0.00 | 53 | 1007.2 |
| 20260507152356 | 79 | 228 | 5.2 | 12.2 | 0.00 | 0.00 | 0.00 | 53 | 1007.3 |
| 20260507151858 | 79 | 240 | 8.7 | 12.2 | 0.00 | 0.00 | 0.00 | 53 | 1007.4 |
| 20260507151356 | 78 | 237 | 4.3 | 11.3 | 0.00 | 0.00 | 0.00 | 53 | 1007.6 |
| 20260507150857 | 78 | 201 | 5.2 | 11.3 | 0.00 | 0.00 | 0.00 | 54 | 1007.5 |
| 20260507150357 | 78 | 224 | 5.2 | 12.2 | 0.00 | 0.00 | 0.00 | 54 | 1007.6 |
| 20260507145857 | 78 | 229 | 4.3 | 13.9 | 0.00 | 0.00 | 0.00 | 54 | 1007.8 |
| 20260507145357 | 78 | 221 | 7.8 | 13.9 | 0.00 | 0.00 | 0.00 | 55 | 1007.9 |
| 20260507144856 | 78 | 244 | 5.2 | 13.9 | 0.00 | 0.00 | 0.00 | 57 | 1008.0 |
| 20260507144356 | 77 | 256 | 5.2 | 13.9 | 0.00 | 0.00 | 0.00 | 57 | 1008.2 |
| 20260507143856 | 77 | 235 | 2.6 | 10.4 | 0.00 | 0.00 | 0.00 | 60 | 1008.5 |
| 20260507143356 | 76 | 245 | 5.2 | 10.4 | 0.00 | 0.00 | 0.00 | 60 | 1008.7 |
| 20260507142856 | 75 | 149 | 7.8 | 11.3 | 0.00 | 0.00 | 0.00 | 61 | 1009.2 |
| 20260507142356 | 74 | 231 | 5.2 | 11.3 | 0.00 | 0.00 | 0.00 | 62 | 1009.2 |
| 20260507141855 | 73 | 265 | 5.2 | 8.7 | 0.00 | 0.00 | 0.00 | 63 | 1009.2 |
| 20260507141355 | 73 | 296 | 3.5 | 6.1 | 0.00 | 0.00 | 0.00 | 64 | 1009.2 |
| 20260507140857 | 73 | 298 | 5.2 | 11.3 | 0.00 | 0.00 | 0.00 | 64 | 1009.2 |
| 20260507140357 | 73 | 272 | 4.3 | 11.3 | 0.00 | 0.00 | 0.00 | 64 | 1009.5 |
| 20260507135857 | 73 | 270 | 5.2 | 7.8 | 0.00 | 0.00 | 0.00 | 64 | 1009.7 |
| 20260507135357 | 73 | 254 | 5.2 | 7.8 | 0.00 | 0.00 | 0.00 | 64 | 1009.9 |
| 20260507134856 | 73 | 209 | 3.5 | 13.0 | 0.00 | 0.00 | 0.00 | 64 | 1010.0 |
| 20260507134356 | 73 | 214 | 3.5 | 13.0 | 0.00 | 0.00 | 0.00 | 64 | 1010.1 |
| 20260507133856 | 72 | 224 | 9.6 | 13.0 | 0.00 | 0.00 | 0.00 | 70 | 1010.0 |
| 20260507133356 | 72 | 217 | 5.2 | 13.0 | 0.00 | 0.00 | 0.00 | 70 | 1010.1 |
| 20260507132856 | 71 | 213 | 5.2 | 13.0 | 0.00 | 0.00 | 0.00 | 70 | 1010.5 |
| 20260507132356 | 71 | 226 | 5.2 | 12.2 | 0.00 | 0.00 | 0.00 | 70 | 1010.6 |
| 20260507131855 | 71 | 263 | 7.0 | 10.4 | 0.00 | 0.00 | 0.00 | 71 | 1010.4 |
| 20260507131355 | 71 | 282 | 5.2 | 7.8 | 0.00 | 0.00 | 0.00 | 70 | 1010.5 |
| 20260507130900 | 72 | 274 | 3.5 | 10.4 | 0.00 | 0.00 | 0.00 | 70 | 1010.9 |
| 20260507130357 | 72 | 283 | 3.5 | 10.4 | 0.00 | 0.00 | 0.00 | 70 | 1010.8 |
| 20260507125857 | 72 | 277 | 7.8 | 10.4 | 0.00 | 0.00 | 0.00 | 70 | 1010.7 |
| 20260507125357 | 72 | 224 | 3.5 | 9.6 | 0.00 | 0.00 | 0.00 | 70 | 1010.8 |
| 20260507124857 | 72 | 236 | 5.2 | 9.6 | 0.00 | 0.00 | 0.00 | 70 | 1011.0 |
| 20260507124356 | 72 | 264 | 5.2 | 7.8 | 0.00 | 0.00 | 0.00 | 71 | 1011.0 |
| 20260507123856 | 71 | 254 | 5.2 | 7.8 | 0.00 | 0.00 | 0.00 | 71 | 1010.8 |
| 20260507123356 | 71 | 227 | 5.2 | 7.8 | 0.00 | 0.00 | 0.00 | 71 | 1010.9 |
| 20260507122856 | 71 | 260 | 5.2 | 7.8 | 0.00 | 0.00 | 0.00 | 72 | 1010.8 |
| 20260507122356 | 70 | 285 | 6.1 | 7.8 | 0.00 | 0.00 | 0.00 | 72 | 1011.0 |
| 20260507121855 | 70 | 251 | 5.2 | 8.7 | 0.00 | 0.00 | 0.00 | 72 | 1011.0 |
| 20260507121355 | 70 | 197 | 3.5 | 8.7 | 0.00 | 0.00 | 0.00 | 72 | 1011.1 |
| 20260507120857 | 70 | 175 | 3.5 | 8.7 | 0.00 | 0.00 | 0.00 | 72 | 1011.1 |
| 20260507120357 | 70 | 203 | 4.3 | 9.6 | 0.00 | 0.00 | 0.00 | 72 | 1011.1 |
| 20260507115857 | 70 | 198 | 2.6 | 12.2 | 0.00 | 0.00 | 0.00 | 72 | 1011.3 |
| 20260507115357 | 70 | 200 | 2.6 | 12.2 | 0.00 | 0.00 | 0.00 | 72 | 1011.2 |
| 20260507114855 | 70 | 221 | 6.1 | 9.6 | 0.00 | 0.00 | 0.00 | 72 | 1011.1 |
| 20260507114355 | 70 | 219 | 5.2 | 9.6 | 0.00 | 0.00 | 0.00 | 72 | 1010.8 |
| 20260507113857 | 70 | 205 | 5.2 | 9.6 | 0.00 | 0.00 | 0.00 | 72 | 1010.9 |
| 20260507113357 | 70 | 207 | 6.1 | 10.4 | 0.00 | 0.00 | 0.00 | 72 | 1010.8 |
| 20260507112857 | 71 | 240 | 5.2 | 10.4 | 0.00 | 0.00 | 0.00 | 72 | 1011.0 |
| 20260507112357 | 71 | 236 | 4.3 | 9.6 | 0.00 | 0.00 | 0.00 | 72 | 1011.0 |
| 20260507111857 | 70 | 206 | 5.2 | 9.6 | 0.00 | 0.00 | 0.00 | 73 | 1010.8 |
| 20260507111355 | 70 | 223 | 5.2 | 7.8 | 0.00 | 0.00 | 0.00 | 75 | 1010.9 |
| 20260507110857 | 69 | 207 | 5.2 | 7.8 | 0.00 | 0.00 | 0.00 | 75 | 1011.1 |
| 20260507110357 | 69 | 222 | 2.6 | 6.1 | 0.00 | 0.00 | 0.00 | 76 | 1011.3 |
| 20260507105857 | 68 | 233 | 4.3 | 6.1 | 0.00 | 0.00 | 0.00 | 77 | 1011.3 |
| 20260507105357 | 68 | 249 | 2.6 | 5.2 | 0.00 | 0.00 | 0.00 | 77 | 1011.3 |